Weather History for De Queen, AR

Change the Weather History Date:

Saturday, December 8, 2012

  Actual Average Record
Temperature  
Mean Temperature 64 °F 44 °F  
Max Temperature 71 °F 57 °F 79 °F (2007)
Min Temperature 56 °F 31 °F 13 °F (2006)
Degree Days  
Heating Degree Days 1 21  
Month to date heating degree days 44 162  
Since 1 July heating degree days 601 688  
Cooling Degree Days 0 0  
Month to date cooling degree days 14 0  
Year to date cooling degree days 2185 1941  
Growing Degree Days 12 (Base 50)    
Moisture  
Dew Point 56 °F    
Average Humidity 77    
Maximum Humidity 100    
Minimum Humidity 53    
Precipitation  
Precipitation 0.00 in 0.11 in 1.31 in (1997)
Month to date precipitation 0.01 0.96  
Year to date precipitation 24.70 45.59  
Snow  
Snow 0.00 in - - ()
Month to date snowfall 0.0  
Since 1 July snowfall 0.0  
Snow Depth 0.00 in    
Sea Level Pressure  
Sea Level Pressure 29.84 in    
Wind  
Wind Speed 1 mph (SW)    
Max Wind Speed 8 mph    
Max Gust Speed 10 mph    
Visibility 5 miles    
Events      
T = Trace of Precipitation, MM = Missing Value Source: NWS Daily Summary

Daily Weather History Graph

Daily Weather History Graph

Search for Another Location

Airport:

Trip Planner

Search our weather history database for the weather conditions in past years. The results will help you decide how hot, cold, wet, or windy it might be!

Date:

Astronomy

Dec. 08, 2012 Rise Set
Actual Time 7:11 AM CST 5:08 PM CST
Civil Twilight 6:43 AM CST 5:35 PM CST
Nautical Twilight 6:12 AM CST 6:07 PM CST
Astronomical Twilight 5:41 AM CST 6:37 PM CST
Moon 1:48 AM CST (12/8) 1:28 PM CST (12/8)
Length of Visible Light 10h 52m
Length of Day
9h 57m
Waning Crescent, 28% of the Moon is Illuminated
Dec 8
Waning Crescent
Dec 13
New
Dec 19
First Quarter
Dec 28
Full
Jan 4
Last Quarter

Hourly Weather History & Observations

Time (CST) Temp. Dew Point Humidity Pressure Visibility Wind Dir Wind Speed Gust Speed Precip Events Conditions
12:53 AM 57.9 °F 55.9 °F 93% 29.84 in 4.0 mi Calm Calm - N/A   Overcast
1:53 AM 59.0 °F 57.0 °F 93% 29.83 in 4.0 mi Calm Calm - N/A   Overcast
2:53 AM 57.9 °F 57.0 °F 97% 29.83 in 3.0 mi Calm Calm - N/A   Overcast
3:53 AM 57.9 °F 55.9 °F 93% 29.83 in 3.0 mi Calm Calm - N/A   Overcast
5:08 AM 57.0 °F 55.9 °F 96% 29.85 in 2.0 mi Calm Calm - N/A   Mostly Cloudy
5:16 AM 55.9 °F 55.9 °F 100% 29.85 in 1.0 mi Calm Calm - N/A   Mostly Cloudy
5:23 AM 57.0 °F 55.9 °F 96% 29.85 in 0.8 mi Calm Calm - N/A   Mostly Cloudy
5:40 AM 57.0 °F 55.9 °F 96% 29.85 in 2.0 mi Calm Calm - N/A   Overcast
5:49 AM 57.2 °F 55.4 °F 94% 29.85 in 4.0 mi Calm Calm - N/A   Overcast
5:53 AM 55.9 °F 55.0 °F 97% 29.85 in 3.0 mi Calm Calm - N/A   Overcast
6:19 AM 57.0 °F 55.9 °F 96% 29.86 in 2.5 mi Calm Calm - N/A   Overcast
6:32 AM 55.9 °F 55.0 °F 97% 29.87 in 0.8 mi NW 3.5 mph - N/A   Overcast
6:41 AM 55.9 °F 55.0 °F 97% 29.87 in 1.8 mi Calm Calm - N/A   Overcast
6:53 AM 55.9 °F 55.0 °F 97% 29.87 in 2.0 mi Calm Calm - N/A   Overcast
7:20 AM 55.9 °F 55.0 °F 97% 29.89 in 2.0 mi Calm Calm - N/A   Overcast
7:53 AM 57.0 °F 55.9 °F 96% 29.88 in 1.8 mi Calm Calm - N/A   Overcast
8:09 AM 57.0 °F 55.9 °F 96% 29.89 in 2.5 mi Calm Calm - N/A   Overcast
8:31 AM 57.9 °F 55.9 °F 93% 29.89 in 3.0 mi NW 3.5 mph - N/A   Overcast
8:53 AM 59.0 °F 54.0 °F 83% 29.89 in 4.0 mi North 3.5 mph - N/A   Haze
9:53 AM 62.1 °F 53.1 °F 72% 29.90 in 5.0 mi Calm Calm - N/A   Haze
10:53 AM 64.0 °F 55.0 °F 73% 29.88 in 5.0 mi Calm Calm - N/A   Haze
11:53 AM 69.1 °F 54.0 °F 58% 29.85 in 10.0 mi Calm Calm - N/A   Mostly Cloudy
12:53 PM 70.0 °F 52.0 °F 53% 29.83 in 10.0 mi West 5.8 mph - N/A   Overcast
1:53 PM 70.0 °F 53.1 °F 55% 29.81 in 10.0 mi SSW 3.5 mph - N/A   Overcast
2:53 PM 70.0 °F 55.0 °F 59% 29.80 in 10.0 mi South 4.6 mph - N/A   Overcast
3:53 PM 70.0 °F 55.0 °F 59% 29.80 in 10.0 mi South 3.5 mph - N/A   Overcast
4:53 PM 69.1 °F 55.9 °F 63% 29.79 in 10.0 mi Calm Calm - N/A   Overcast
6:17 PM 66.9 °F 57.0 °F 70% 29.81 in 10.0 mi SE 3.5 mph - N/A   Mostly Cloudy
6:39 PM 66.9 °F 57.0 °F 70% 29.81 in 10.0 mi SSE 3.5 mph - N/A   Mostly Cloudy
6:53 PM 66.0 °F 57.0 °F 73% 29.80 in 10.0 mi Calm Calm - N/A   Mostly Cloudy
7:53 PM 63.0 °F 57.0 °F 81% 29.81 in 8.0 mi Calm Calm - N/A   Mostly Cloudy
8:53 PM 59.0 °F 55.9 °F 90% 29.81 in 7.0 mi Calm Calm - N/A   Mostly Cloudy
9:53 PM 57.9 °F 55.9 °F 93% 29.80 in 8.0 mi Calm Calm - N/A   Scattered Clouds
10:53 PM 55.9 °F 54.0 °F 93% 29.79 in 6.0 mi Calm Calm - N/A   Partly Cloudy
11:46 PM 60.1 °F 57.9 °F 93% 29.79 in 6.0 mi Calm Calm - N/A   Mostly Cloudy
11:53 PM 59.0 °F 57.9 °F 96% 29.78 in 5.0 mi Calm Calm - N/A   Mostly Cloudy